This demonstration page uses our WeatherBlox Daily Observations layout. Learn more.

Left ArrowRight Arrow

Hourly Observations for December 4, 2015

Temp ( °F °C ) Dew Point ( °F °C ) Humidity (%) Winds ( mph kmh ) Pressure ( in mb ) Visibility ( mi km ) Precip ( " mm )
12:53 am 00:53 Cloudy 51 10.6 46 7.8 83 83 S 13 20 30.04 1017 10 16 0.00 0.00
1:28 am 01:28 Mostly Cloudy 50 10 45 7 82 82 S 12 19 30.06 1018 10 16 0.00 0.00
1:53 am 01:53 Mostly Cloudy with Light Rain 50 10 45 7.2 83 83 S 13 20 30.06 1018 10 16 0.00 0.03
2:53 am 02:53 Mostly Cloudy 49 9.4 44 6.7 83 83 SSW 6 9 30.08 1019 10 16 0.00 0.03
3:25 am 03:25 Cloudy 49 9.4 45 7.2 86 86 SSW 6 9 30.09 1019 10 16 0.00 0.00
3:53 am 03:53 Cloudy 49 9.4 45 7.2 86 86 S 7 11 30.09 1019 10 16 0.00 0.00
4:42 am 04:42 Cloudy 48 9 45 7 87 87 S 9 15 30.09 1019 10 16 0.00 0.00
4:53 am 04:53 Cloudy 49 9.4 44 6.7 83 83 SSW 10 17 30.10 1019 10 16 0.00 0.00
5:18 am 05:18 Cloudy 48 9 45 7 87 87 S 10 17 30.12 1020 10 16 0.00 0.00
5:33 am 05:33 Mostly Cloudy 48 8.9 44 6.7 86 86 SSW 9 15 30.12 1020 10 16 0.00 0.00
5:53 am 05:53 Partly Cloudy 48 8.9 44 6.7 86 86 SSW 8 13 30.11 1020 10 16 0.00 0.00
6:46 am 06:46 Cloudy 48 9 43 6 82 82 WSW 5 7 30.15 1021 10 16 0.00 0.00
6:53 am 06:53 Cloudy 48 8.9 43 6.1 83 83 SW 3 6 30.14 1021 10 16 0.00 0.00
7:53 am 07:53 Cloudy 48 8.9 43 6.1 83 83 SW 6 9 30.17 1022 10 16 0.00 0.00
8:53 am 08:53 Mostly Cloudy 48 8.9 42 5.6 80 80 WSW 6 9 30.20 1023 10 16 0.00 0.00
9:53 am 09:53 Cloudy 49 9.4 43 6.1 80 80 SW 5 7 30.22 1024 10 16 0.00 0.00
10:53 am 10:53 Cloudy 51 10.6 45 7.2 80 80 S 9 15 30.23 1024 10 16 0.00 0.00
11:28 am 11:28 Cloudy 52 11 45 7 77 77 S 5 7 30.24 1024 10 16 0.00 0.00
11:53 am 11:53 Cloudy 53 11.7 46 7.8 77 77 SSW 7 11 30.23 1024 10 16 0.00 0.00
12:53 pm 12:53 Cloudy 56 13.3 46 7.8 70 70 SE 7 11 30.19 1022 10 16 0.00 0.00
1:53 pm 13:53 Mostly Cloudy 56 13.3 45 7.2 67 67 S 3 6 30.19 1022 10 16 0.00 0.00
2:53 pm 14:53 Mostly Cloudy 57 13.9 43 6.1 60 60 Calm 30.20 1023 10 16 0.00 0.00
3:53 pm 15:53 Mostly Sunny 56 13.3 43 6.1 62 62 WSW 5 7 30.22 1023 10 16 0.00 0.00
4:53 pm 16:53 Clear 52 11.1 43 6.1 72 72 N 3 6 30.23 1024 10 16 0.00 0.00
5:53 pm 17:53 Clear 48 8.9 43 6.1 83 83 Calm 30.24 1024 10 16 0.00 0.00
6:53 pm 18:53 Clear 48 8.9 43 6.1 83 83 NW 6 9 30.25 1025 10 16 0.00 0.00
7:53 pm 19:53 Clear 47 8.3 42 5.6 83 83 NW 3 6 30.27 1025 10 16 0.00 0.00
8:53 pm 20:53 Mostly Cloudy 46 7.8 41 5 83 83 NNW 5 7 30.28 1025 10 16 0.00 0.00
9:53 pm 21:53 Clear 43 6.1 39 3.9 86 86 NNW 5 7 30.29 1026 10 16 0.00 0.00
10:53 pm 22:53 Mostly Clear 44 6.7 40 4.4 85 85 NNW 5 7 30.29 1026 10 16 0.00 0.00
11:53 pm 23:53 Clear 43 6.1 38 3.3 82 82 N 5 7 30.29 1026 10 16 0.00 0.00

Powered by AerisWeather